Miscellaneous Local Product
Issued by NWS Hastings, NE

Home | Current Version | Previous Version | Graphics & Text | Print | Product List | Glossary On
Versions: 1 2 3 4 5 6 7 8 9 10 11 12 13 14 15 16 17 18 19 20 21 22 23 24 25 26 27 28 29 30 31 32 33 34 35 36 37 38 39 40 41 42 43 44 45 46 47 48 49 50
000
AXUS43 KGID 301602
MISGRI

GID CWA HOURLY WEATHER ROUNDUP
NATIONAL WEATHER SERVICE HASTINGS NE
1100 AM CDT MON MAY 30 2016

NOTE: "FAIR" INDICATES FEW OR NO CLOUDS BELOW 12,000 FEET WITH NO
SIGNIFICANT WEATHER AND/OR OBSTRUCTIONS TO VISIBILITY.

...SOUTH CENTRAL NEBRASKA...

CITY           SKY/WX    TMP DP  RH WIND       PRES   REMARKS
GRAND ISLAND   CLOUDY    69  57  65 SE6       29.99F
HASTINGS       MOSUNNY   71  62  73 S7        29.99F
KEARNEY        SUNNY     73  59  60 SE7       29.99F
ORD            MOSUNNY   74  56  53 VRB3      29.96F
YORK           CLOUDY    73  63  68 SE7       29.99F
AURORA         PTSUNNY   73  60  63 SE3       29.99F
LEXINGTON      CLOUDY    75  53  45 SW5       29.98F
HOLDREGE       SUNNY     71  54  55 S5        29.99F
HEBRON         CLOUDY    75  58  55 S7        30.00F

...NEBRASKA PANHANDLE...

CITY           SKY/WX    TMP DP  RH WIND       PRES   REMARKS
CHADRON        SUNNY     74  49  41 SW9       29.90F
ALLIANCE       SUNNY     74  48  39 W10       29.95F
SCOTTSBLUFF    SUNNY     72  49  44 NW5       29.96F
SIDNEY         SUNNY     73  50  44 SW6       29.99F

...WESTERN AND NORTH CENTRAL NEBRASKA...

CITY           SKY/WX    TMP DP  RH WIND       PRES   REMARKS
VALENTINE      MOSUNNY   71  53  52 S14       29.93F
AINSWORTH      SUNNY     72  55  54 S14       29.95F
ONEILL         MOSUNNY   73  58  59 S7        29.97F
BROKEN BOW     SUNNY     72  57  59 VRB3      29.97F
IMPERIAL       SUNNY     69  55  60 S6        29.98F
NORTH PLATTE   SUNNY     72  55  55 S8        29.98F
MCCOOK         SUNNY     73  53  49 S6        29.98F

...EASTERN NEBRASKA...

CITY           SKY/WX    TMP DP  RH WIND       PRES   REMARKS
NORFOLK        CLOUDY    75  55  49 SE12      29.98F
SO SIOUX CITY  MOSUNNY   77  60  55 S9        29.98F
TEKAMAH        SUNNY     81  55  40 S6        29.98F
COLUMBUS       CLOUDY    75  54  46 SE7       30.00F
ALBION         PTSUNNY   72  57  58 S6        29.98F
OMAHA EPPLEY   PTSUNNY   79  60  52 S8        29.99F
OFFUTT AFB     SUNNY     79  64  58 SW8       29.99F
MILLARD        SUNNY     78  62  58 SE6       30.00S
LINCOLN        MOSUNNY   76  63  64 E6        30.00F
NEBRASKA CITY  SUNNY     79  62  55 SW5       30.00F
BEATRICE       SUNNY     75  63  66 S6        30.00F
FALLS CITY     SUNNY     81  68  64 S6        30.00S

...NORTHERN KANSAS...

CITY           SKY/WX    TMP DP  RH WIND       PRES   REMARKS
GOODLAND       SUNNY     69  54  58 S9        29.99F
HILL CITY      SUNNY     76  55  48 SW9       30.00F
NORTON         SUNNY     73  48  40 SE9       29.99F
PHILLIPSBURG   SUNNY     75  57  53 SE8       29.99F
SMITH CENTER   SUNNY     73  61  64 S7        30.00F
BELOIT         SUNNY     72  59  64 CALM      29.99F
HAYS           SUNNY     72  55  56 S12       30.02S
RUSSELL        CLOUDY    73  62  68 S6        30.01S
CONCORDIA      CLOUDY    78  60  53 S8        30.00F
SALINA         CLOUDY    75  61  61 S5        30.01F
TOPEKA         SUNNY     79  66  64 S6        30.01F



USA.gov is the U.S. government's official web portal to all federal, state and local government web resources and services.